Time,TemperatureF,DewpointF,PressureIn,WindDirection,WindDirectionDegrees,WindSpeedMPH,WindSpeedGustMPH,Humidity,HourlyPrecipIn,Conditions,Clouds,dailyrainin,SoftwareType,DateUTC
2013-01-19 00:03:00,25.0,16.0,30.45,WNW,300,2.0,5.0,68,0.00,,,0.00,,2013-01-19 05:03:00,
2013-01-19 00:12:00,25.0,16.0,30.45,WNW,300,2.0,5.0,68,0.00,,,0.00,,2013-01-19 05:12:00,
2013-01-19 00:23:00,26.0,17.0,30.44,WNW,300,3.0,10.0,69,0.00,,,0.00,,2013-01-19 05:23:00,
2013-01-19 00:33:00,26.0,17.0,30.44,WNW,301,1.0,7.0,69,0.00,,,0.00,,2013-01-19 05:33:00,
2013-01-19 00:43:00,26.0,17.0,30.44,WNW,301,1.0,7.0,69,0.00,,,0.00,,2013-01-19 05:43:00,
2013-01-19 00:53:00,26.0,17.0,30.43,North,0,0.0,4.0,69,0.00,,,0.00,,2013-01-19 05:53:00,
2013-01-19 01:03:00,27.0,19.0,30.43,WNW,301,1.0,5.0,70,0.00,,,0.00,,2013-01-19 06:03:00,
2013-01-19 01:12:00,27.0,19.0,30.43,WNW,301,1.0,5.0,70,0.00,,,0.00,,2013-01-19 06:12:00,
2013-01-19 01:22:00,27.0,19.0,30.42,WNW,300,2.0,5.0,72,0.00,,,0.00,,2013-01-19 06:22:00,
2013-01-19 01:32:00,27.0,20.0,30.42,North,0,0.0,6.0,73,0.00,,,0.00,,2013-01-19 06:32:00,
2013-01-19 01:43:00,27.0,20.0,30.42,North,0,0.0,6.0,73,0.00,,,0.00,,2013-01-19 06:43:00,
2013-01-19 01:53:00,28.0,21.0,30.42,WNW,300,4.0,8.0,75,0.00,,,0.00,,2013-01-19 06:53:00,
2013-01-19 02:02:00,28.0,21.0,30.42,WNW,300,4.0,10.0,75,0.00,,,0.00,,2013-01-19 07:02:00,
2013-01-19 02:12:00,28.0,21.0,30.42,WNW,300,4.0,10.0,75,0.00,,,0.00,,2013-01-19 07:12:00,
2013-01-19 02:22:00,28.0,21.0,30.42,North,0,0.0,6.0,76,0.00,,,0.00,,2013-01-19 07:22:00,
2013-01-19 02:33:00,28.0,22.0,30.41,North,0,0.0,6.0,77,0.00,,,0.00,,2013-01-19 07:33:00,
2013-01-19 02:43:00,28.0,22.0,30.41,North,0,0.0,6.0,77,0.00,,,0.00,,2013-01-19 07:43:00,
2013-01-19 02:53:00,28.0,22.0,30.41,North,0,0.0,5.0,78,0.00,,,0.00,,2013-01-19 07:53:00,
2013-01-19 03:02:00,28.0,22.0,30.40,WNW,300,1.0,4.0,78,0.00,,,0.00,,2013-01-19 08:02:00,
2013-01-19 03:12:00,28.0,22.0,30.40,WNW,300,1.0,4.0,78,0.00,,,0.00,,2013-01-19 08:12:00,
2013-01-19 03:22:00,27.0,21.0,30.40,North,0,0.0,6.0,79,0.00,,,0.00,,2013-01-19 08:22:00,
2013-01-19 03:32:00,27.0,21.0,30.40,WNW,300,3.0,6.0,79,0.00,,,0.00,,2013-01-19 08:32:00,
2013-01-19 03:43:00,27.0,21.0,30.40,WNW,300,3.0,6.0,79,0.00,,,0.00,,2013-01-19 08:43:00,
2013-01-19 03:53:00,27.0,22.0,30.39,North,0,0.0,4.0,81,0.00,,,0.00,,2013-01-19 08:53:00,
2013-01-19 04:02:00,27.0,22.0,30.38,WNW,300,2.0,5.0,81,0.00,,,0.00,,2013-01-19 09:02:00,
2013-01-19 04:12:00,27.0,22.0,30.38,WNW,300,2.0,5.0,81,0.00,,,0.00,,2013-01-19 09:12:00,
2013-01-19 04:23:00,27.0,22.0,30.38,North,0,0.0,4.0,82,0.00,,,0.00,,2013-01-19 09:23:00,
2013-01-19 04:33:00,27.0,23.0,30.37,North,0,0.0,4.0,83,0.00,,,0.00,,2013-01-19 09:33:00,
2013-01-19 04:42:00,27.0,23.0,30.37,North,0,0.0,4.0,83,0.00,,,0.00,,2013-01-19 09:42:00,
2013-01-19 04:53:00,27.0,23.0,30.37,WNW,300,1.0,4.0,85,0.00,,,0.00,,2013-01-19 09:53:00,
2013-01-19 05:02:00,27.0,23.0,30.37,WNW,300,1.0,4.0,85,0.00,,,0.00,,2013-01-19 10:02:00,
2013-01-19 05:12:00,27.0,23.0,30.37,WNW,300,1.0,4.0,85,0.00,,,0.00,,2013-01-19 10:12:00,
2013-01-19 05:22:00,28.0,25.0,30.36,WNW,300,4.0,10.0,87,0.00,,,0.00,,2013-01-19 10:22:00,
2013-01-19 05:32:00,29.0,25.0,30.36,WNW,301,6.0,14.0,86,0.00,,,0.00,,2013-01-19 10:32:00,
2013-01-19 05:43:00,29.0,25.0,30.36,WNW,301,6.0,14.0,86,0.00,,,0.00,,2013-01-19 10:43:00,
2013-01-19 05:53:00,31.0,26.0,30.36,WNW,301,3.0,17.0,82,0.00,,,0.00,,2013-01-19 10:53:00,
2013-01-19 06:03:00,32.0,27.0,30.35,WNW,300,5.0,16.0,81,0.00,,,0.00,,2013-01-19 11:03:00,
2013-01-19 06:12:00,32.0,27.0,30.35,WNW,300,5.0,16.0,81,0.00,,,0.00,,2013-01-19 11:12:00,
2013-01-19 06:43:00,32.0,26.0,30.35,WNW,301,3.0,15.0,78,0.00,,,0.00,,2013-01-19 11:43:00,
2013-01-19 07:48:00,32.0,26.0,30.35,WNW,301,9.0,20.0,79,0.00,,,0.00,,2013-01-19 12:48:00,
2013-01-19 07:53:00,32.0,26.0,30.34,WNW,301,7.0,16.0,79,0.00,,,0.00,,2013-01-19 12:53:00,
2013-01-19 08:03:00,32.0,26.0,30.35,WNW,301,7.0,16.0,79,0.00,,,0.00,,2013-01-19 13:03:00,
2013-01-19 08:12:00,32.0,26.0,30.35,WNW,301,7.0,16.0,79,0.00,,,0.00,,2013-01-19 13:12:00,
2013-01-19 08:22:00,32.0,26.0,30.34,WNW,301,9.0,16.0,79,0.00,,,0.00,,2013-01-19 13:22:00,
2013-01-19 08:33:00,33.0,27.0,30.34,WNW,300,7.0,14.0,78,0.00,,,0.00,,2013-01-19 13:33:00,
2013-01-19 08:43:00,33.0,27.0,30.34,WNW,300,7.0,14.0,78,0.00,,,0.00,,2013-01-19 13:43:00,
2013-01-19 08:53:00,34.0,27.0,30.35,WNW,301,6.0,16.0,76,0.00,,,0.00,,2013-01-19 13:53:00,
2013-01-19 09:03:00,34.0,27.0,30.35,WNW,301,4.0,16.0,76,0.00,,,0.00,,2013-01-19 14:03:00,
2013-01-19 09:12:00,34.0,27.0,30.35,WNW,301,4.0,16.0,76,0.00,,,0.00,,2013-01-19 14:12:00,
2013-01-19 09:23:00,35.0,28.0,30.35,WNW,301,5.0,16.0,74,0.00,,,0.00,,2013-01-19 14:23:00,
2013-01-19 09:34:00,35.0,27.0,30.35,WNW,301,6.0,16.0,73,0.00,,,0.00,,2013-01-19 14:34:00,
2013-01-19 09:43:00,35.0,27.0,30.35,WNW,301,6.0,16.0,73,0.00,,,0.00,,2013-01-19 14:43:00,
2013-01-19 09:53:00,36.0,28.0,30.35,WNW,301,10.0,16.0,71,0.00,,,0.00,,2013-01-19 14:53:00,
2013-01-19 10:03:00,36.0,28.0,30.35,WNW,300,4.0,16.0,71,0.00,,,0.00,,2013-01-19 15:03:00,
2013-01-19 10:13:00,36.0,28.0,30.35,WNW,300,4.0,16.0,71,0.00,,,0.00,,2013-01-19 15:13:00,
2013-01-19 10:23:00,37.0,28.0,30.34,WNW,301,7.0,18.0,69,0.00,,,0.00,,2013-01-19 15:23:00,
2013-01-19 10:33:00,37.0,28.0,30.34,WNW,301,7.0,18.0,69,0.00,,,0.00,,2013-01-19 15:33:00,
2013-01-19 10:43:00,37.0,28.0,30.34,WNW,301,7.0,18.0,69,0.00,,,0.00,,2013-01-19 15:43:00,
2013-01-19 10:53:00,38.0,28.0,30.33,WNW,300,6.0,17.0,68,0.00,,,0.00,,2013-01-19 15:53:00,
2013-01-19 11:03:00,38.0,28.0,30.33,WNW,300,6.0,17.0,68,0.00,,,0.00,,2013-01-19 16:03:00,
2013-01-19 11:13:00,38.0,28.0,30.33,WNW,300,6.0,17.0,68,0.00,,,0.00,,2013-01-19 16:13:00,
2013-01-19 11:23:00,39.0,29.0,30.32,WNW,300,7.0,14.0,68,0.00,,,0.00,,2013-01-19 16:23:00,
2013-01-19 11:33:00,39.0,29.0,30.32,WNW,300,7.0,14.0,68,0.00,,,0.00,,2013-01-19 16:33:00,
2013-01-19 11:43:00,39.0,29.0,30.32,WNW,300,7.0,14.0,68,0.00,,,0.00,,2013-01-19 16:43:00,
2013-01-19 11:53:00,40.0,30.0,30.29,WNW,300,7.0,17.0,67,0.00,,,0.00,,2013-01-19 16:53:00,
2013-01-19 12:03:00,41.0,31.0,30.27,WNW,300,4.0,11.0,67,0.00,,,0.00,,2013-01-19 17:03:00,
2013-01-19 12:29:00,41.0,31.0,30.26,WNW,300,9.0,15.0,67,0.00,,,0.00,,2013-01-19 17:29:00,
2013-01-19 12:36:00,42.0,31.0,30.25,WNW,300,11.0,17.0,66,0.00,,,0.00,,2013-01-19 17:36:00,
2013-01-19 12:48:00,42.0,31.0,30.25,WNW,300,11.0,17.0,66,0.00,,,0.00,,2013-01-19 17:48:00,
2013-01-19 12:55:00,43.0,32.0,30.23,WNW,301,3.0,11.0,65,0.00,,,0.00,,2013-01-19 17:55:00,
2013-01-19 13:12:00,43.0,32.0,30.23,WNW,300,5.0,15.0,65,0.00,,,0.00,,2013-01-19 18:12:00,
2013-01-19 13:28:00,43.0,32.0,30.22,WNW,300,8.0,17.0,64,0.00,,,0.00,,2013-01-19 18:28:00,
2013-01-19 13:35:00,43.0,32.0,30.22,WNW,300,8.0,17.0,64,0.00,,,0.00,,2013-01-19 18:35:00,
2013-01-19 13:45:00,43.0,32.0,30.22,WNW,300,8.0,17.0,64,0.00,,,0.00,,2013-01-19 18:45:00,
2013-01-19 14:02:00,44.0,33.0,30.19,WNW,300,7.0,16.0,64,0.00,,,0.00,,2013-01-19 19:02:00,
2013-01-19 14:09:00,44.0,32.0,30.19,WNW,301,4.0,14.0,62,0.00,,,0.00,,2013-01-19 19:09:00,
2013-01-19 14:21:00,44.0,32.0,30.19,WNW,301,4.0,14.0,62,0.00,,,0.00,,2013-01-19 19:21:00,
2013-01-19 14:39:00,45.0,32.0,30.18,WNW,301,13.0,22.0,60,0.00,,,0.00,,2013-01-19 19:39:00,
2013-01-19 14:47:00,45.0,32.0,30.18,WNW,301,13.0,22.0,60,0.00,,,0.00,,2013-01-19 19:47:00,
2013-01-19 14:59:00,45.0,32.0,30.17,WNW,300,13.0,20.0,59,0.00,,,0.00,,2013-01-19 19:59:00,
2013-01-19 15:10:00,45.0,32.0,30.16,WNW,301,9.0,17.0,59,0.00,,,0.00,,2013-01-19 20:10:00,
2013-01-19 15:19:00,45.0,32.0,30.16,WNW,301,9.0,17.0,59,0.00,,,0.00,,2013-01-19 20:19:00,
2013-01-19 15:25:00,46.0,32.0,30.15,WNW,301,11.0,20.0,57,0.00,,,0.00,,2013-01-19 20:25:00,
2013-01-19 15:38:00,46.0,32.0,30.15,WNW,301,11.0,19.0,57,0.00,,,0.00,,2013-01-19 20:38:00,
2013-01-19 15:48:00,46.0,32.0,30.15,WNW,301,11.0,19.0,57,0.00,,,0.00,,2013-01-19 20:48:00,
2013-01-19 15:59:00,46.0,32.0,30.14,WNW,301,12.0,18.0,57,0.00,,,0.00,,2013-01-19 20:59:00,
2013-01-19 16:07:00,46.0,32.0,30.14,WNW,301,7.0,18.0,58,0.00,,,0.00,,2013-01-19 21:07:00,
2013-01-19 16:14:00,46.0,32.0,30.14,WNW,301,7.0,18.0,58,0.00,,,0.00,,2013-01-19 21:14:00,
2013-01-19 16:44:00,46.0,33.0,30.14,WNW,300,5.0,10.0,60,0.00,,,0.00,,2013-01-19 21:44:00,
2013-01-19 16:50:00,46.0,33.0,30.14,WNW,300,5.0,10.0,60,0.00,,,0.00,,2013-01-19 21:50:00,
2013-01-19 17:00:00,45.0,33.0,30.13,WNW,300,7.0,13.0,62,0.00,,,0.00,,2013-01-19 22:00:00,
2013-01-19 17:14:00,45.0,33.0,30.12,WNW,301,6.0,11.0,62,0.00,,,0.00,,2013-01-19 22:14:00,
2013-01-19 17:19:00,45.0,33.0,30.12,WNW,301,6.0,11.0,62,0.00,,,0.00,,2013-01-19 22:19:00,
2013-01-19 17:27:00,44.0,32.0,30.11,WNW,301,2.0,7.0,63,0.00,,,0.00,,2013-01-19 22:27:00,
2013-01-19 17:35:00,44.0,33.0,30.11,WNW,300,4.0,9.0,64,0.00,,,0.00,,2013-01-19 22:35:00,
2013-01-19 17:48:00,44.0,33.0,30.11,WNW,300,4.0,9.0,64,0.00,,,0.00,,2013-01-19 22:48:00,
2013-01-19 17:58:00,43.0,32.0,30.11,WNW,301,1.0,9.0,65,0.00,,,0.00,,2013-01-19 22:58:00,
2013-01-19 18:13:00,43.0,32.0,30.10,WNW,300,4.0,7.0,65,0.00,,,0.00,,2013-01-19 23:13:00,
2013-01-19 18:26:00,42.0,31.0,30.10,WNW,300,3.0,10.0,65,0.00,,,0.00,,2013-01-19 23:26:00,
2013-01-19 18:34:00,42.0,31.0,30.10,WNW,301,2.0,7.0,65,0.00,,,0.00,,2013-01-19 23:34:00,
2013-01-19 18:46:00,42.0,31.0,30.10,WNW,301,2.0,7.0,65,0.00,,,0.00,,2013-01-19 23:46:00,
2013-01-19 19:08:00,42.0,31.0,30.10,WNW,300,4.0,8.0,66,0.00,,,0.00,,2013-01-20 00:08:00,
2013-01-19 19:15:00,42.0,31.0,30.10,WNW,301,2.0,7.0,65,0.00,,,0.00,,2013-01-20 00:15:00,
2013-01-19 19:25:00,42.0,31.0,30.09,WNW,300,3.0,6.0,66,0.00,,,0.00,,2013-01-20 00:25:00,
2013-01-19 19:35:00,42.0,31.0,30.09,WNW,300,6.0,12.0,66,0.00,,,0.00,,2013-01-20 00:35:00,
2013-01-19 19:46:00,42.0,31.0,30.09,WNW,300,6.0,12.0,66,0.00,,,0.00,,2013-01-20 00:46:00,
2013-01-19 20:04:00,42.0,32.0,30.08,WNW,301,3.0,12.0,67,0.00,,,0.00,,2013-01-20 01:04:00,
2013-01-19 20:20:00,42.0,32.0,30.08,WNW,301,3.0,12.0,67,0.00,,,0.00,,2013-01-20 01:20:00,
2013-01-19 20:27:00,41.0,32.0,30.07,WNW,300,8.0,14.0,69,0.00,,,0.00,,2013-01-20 01:27:00,
2013-01-19 20:37:00,41.0,32.0,30.06,WNW,300,7.0,11.0,70,0.00,,,0.00,,2013-01-20 01:37:00,
2013-01-19 20:48:00,41.0,32.0,30.06,WNW,300,7.0,11.0,70,0.00,,,0.00,,2013-01-20 01:48:00,
2013-01-19 21:04:00,41.0,32.0,30.06,WNW,301,7.0,11.0,71,0.00,,,0.00,,2013-01-20 02:04:00,
2013-01-19 21:27:00,40.0,32.0,30.05,WNW,300,7.0,12.0,74,0.00,,,0.00,,2013-01-20 02:27:00,
2013-01-19 21:35:00,40.0,32.0,30.05,WNW,301,3.0,8.0,74,0.00,,,0.00,,2013-01-20 02:35:00,
2013-01-19 21:44:00,40.0,32.0,30.05,WNW,301,3.0,8.0,74,0.00,,,0.00,,2013-01-20 02:44:00,
2013-01-19 21:59:00,39.0,32.0,30.04,WNW,300,5.0,10.0,76,0.00,,,0.00,,2013-01-20 02:59:00,
2013-01-19 22:08:00,39.0,32.0,30.04,WNW,300,6.0,12.0,77,0.00,,,0.00,,2013-01-20 03:08:00,
2013-01-19 22:15:00,39.0,32.0,30.04,WNW,300,6.0,12.0,77,0.00,,,0.00,,2013-01-20 03:15:00,
2013-01-19 22:25:00,39.0,32.0,30.03,WNW,301,7.0,11.0,77,0.00,,,0.00,,2013-01-20 03:25:00,
2013-01-19 22:38:00,39.0,32.0,30.02,WNW,300,5.0,12.0,77,0.00,,,0.00,,2013-01-20 03:38:00,
2013-01-19 22:45:00,39.0,32.0,30.02,WNW,300,5.0,12.0,77,0.00,,,0.00,,2013-01-20 03:45:00,
2013-01-19 22:54:00,40.0,32.0,30.01,WNW,300,7.0,15.0,73,0.00,,,0.00,,2013-01-20 03:54:00,
2013-01-19 23:05:00,41.0,33.0,30.00,WNW,301,10.0,14.0,72,0.00,,,0.00,,2013-01-20 04:05:00,
2013-01-19 23:26:00,41.0,32.0,29.99,WNW,301,6.0,17.0,71,0.00,,,0.00,,2013-01-20 04:26:00,
2013-01-19 23:36:00,41.0,32.0,29.98,WNW,301,5.0,15.0,71,0.00,,,0.00,,2013-01-20 04:36:00,
2013-01-19 23:44:00,41.0,32.0,29.98,WNW,301,5.0,15.0,71,0.00,,,0.00,,2013-01-20 04:44:00,
2013-01-19 23:58:00,40.0,32.0,29.97,WNW,301,5.0,12.0,72,0.00,,,0.00,,2013-01-20 04:58:00,